[[{"header":{"parameterUnit":"m.s-1","parameterCategory":1,"la1":30.2991,"la2":30.254,"lo1":-89.0895,"lo2":-89.0444,"dy":0.0017,"dx":0.0017,"nx":28,"ny":28,"refTime":"2024-02-12T03:00:00:Z","depth":0,"parameterNumber":2,"parameterNumberName":"U-component_of_WINDS"},"data":[0,0,0,0,0,0,0,0,0,0,0,0,0,0,0,0,0,0,0,0,0,0,0,0,0,0,0,0,0,0,0,0,0,0,0,0,0,0,0,0,0,0,0,0,0,0,0,0,0,0,0,0,0,0,0,0,0,0,-0.9251,-0.9251,0,-0.9278,-0.9278,-0.9278,-0.9266,-0.9265,-0.9265,-0.9264,-0.929,-0.9291,-0.9292,0,0,0,0,0,0,0,0,0,0,0,0,0,-0.9189,-0.9191,-0.9251,-0.9251,-0.9252,-0.9278,-0.9278,-0.9278,-0.9266,-0.9265,-0.9264,-0.9264,-0.9289,-0.9291,-0.9292,0,0,0,0,0,0,0,0,0,0,0,0,0,-0.9216,-0.9191,-0.9251,-0.9249,-0.9249,-0.9278,-0.9278,-0.9278,-0.9266,-0.9265,-0.9264,-0.9263,-0.9289,-0.9291,-0.9293,-0.9325,0,0,-0.9299,-0.93,0,0,0,0,0,0,0,0,-0.9215,-0.9218,-0.9249,-0.9249,-0.9249,-0.9268,-0.9266,-0.9294,-0.9267,-0.926,-0.9264,-0.9263,-0.9283,-0.9285,-0.9293,-0.9326,-0.9327,-0.9299,-0.93,-0.9301,-0.9301,0,0,0,0,0,0,0,-0.9213,-0.9217,-0.9262,-0.9249,-0.925,-0.9246,-0.9249,-0.9271,-0.9277,-0.926,-0.9259,-0.9263,-0.9283,-0.9291,-0.9293,-0.9327,-0.9299,-0.9301,-0.9302,-0.9302,-0.9388,-0.939,0,0,0,0,0,0,-0.9211,-0.9216,-0.9261,-0.9262,-0.9229,-0.9248,-0.9251,-0.9263,-0.9276,-0.9277,-0.9264,-0.9262,-0.9288,-0.9291,-0.9294,-0.9332,-0.9301,-0.9303,-0.9304,-0.9387,-0.9389,-0.939,0,0,0,0,0,0,-0.921,-0.9215,-0.926,-0.9239,-0.9244,-0.925,-0.9263,-0.9264,-0.9271,-0.9279,-0.928,-0.927,-0.9287,-0.9291,-0.9317,-0.9333,-0.9304,-0.9305,-0.9386,-0.9388,-0.9389,-0.9408,0,0,0,0,0,0,-0.9208,-0.9215,-0.9227,-0.9239,-0.9245,-0.9283,-0.9264,-0.9265,-0.9275,-0.9273,-0.9286,-0.9287,-0.9287,-0.9314,-0.9319,-0.9335,-0.9307,-0.9385,-0.9387,-0.9389,-0.9406,-0.9411,-0.9414,0,0,0,0,0,-0.9206,-0.9231,-0.9228,-0.9233,-0.9261,-0.9284,-0.9287,-0.9287,-0.9276,-0.9288,-0.9294,-0.9286,-0.9331,-0.9317,-0.9322,-0.9339,-0.9384,-0.9386,-0.9389,-0.9405,-0.941,-0.9414,0,0,0,0,0,0,-0.922,-0.9232,-0.9229,-0.9259,-0.927,-0.9281,-0.9297,-0.9292,-0.9307,-0.9304,-0.9304,-0.9307,-0.9333,-0.9339,-0.9324,-0.9371,-0.9355,-0.9359,-0.9366,-0.9371,-0.9374,-0.9372,-0.9308,0,0,0,0,0,-0.9226,-0.9244,-0.9254,-0.928,-0.9286,-0.929,-0.93,-0.93,-0.9311,-0.9316,-0.9323,-0.9334,-0.935,-0.9361,-0.9377,-0.9408,-0.941,-0.9422,-0.9426,-0.9429,-0.9431,-0.9448,-0.9453,-0.9398,-0.9398,-0.9398,0,0,-0.924,-0.9249,-0.926,-0.9283,-0.9291,-0.9309,-0.9294,-0.9314,-0.9327,-0.9319,-0.9343,-0.9349,-0.9362,-0.939,-0.9403,-0.9396,-0.9448,-0.9432,-0.9434,-0.9435,-0.9451,-0.9456,-0.9461,-0.94,-0.94,-0.9399,0,0,-0.9273,-0.9283,-0.9305,-0.9314,-0.9328,-0.9331,-0.9337,-0.9349,-0.9352,-0.9378,-0.9372,-0.9388,-0.9416,-0.9425,-0.9434,-0.9473,-0.9466,-0.9478,-0.9497,-0.9513,-0.9518,-0.9521,-0.9535,-0.9539,-0.9481,-0.9481,-0.9481,0,-0.9288,-0.9315,-0.9316,-0.9337,-0.9347,-0.9341,-0.9363,-0.9372,-0.939,-0.9397,-0.9389,-0.9425,-0.9433,-0.9464,-0.9473,-0.9481,-0.9486,-0.9475,-0.9517,-0.9521,-0.9524,-0.9537,-0.9542,-0.9482,-0.9482,-0.9482,-0.9482,0,-0.9333,-0.9352,-0.9368,-0.9386,-0.9398,-0.9419,-0.9423,-0.9436,-0.9434,-0.9438,-0.9464,-0.9474,-0.9492,-0.9499,-0.9498,-0.953,-0.9525,-0.9517,-0.9501,-0.9531,-0.9543,-0.9547,-0.9484,-0.9483,-0.9483,-0.9483,0,0,-0.9374,-0.9393,-0.9399,-0.9407,-0.9423,-0.9438,-0.9459,-0.9477,-0.9487,-0.95,-0.9517,-0.9542,-0.9535,-0.9545,-0.9545,-0.956,-0.9589,-0.955,-0.955,-0.9556,-0.9624,-0.9629,-0.9635,-0.9586,-0.9587,-0.9587,-0.9623,0,-0.9408,-0.9445,-0.9447,-0.9481,-0.9498,-0.9494,-0.9512,-0.9524,-0.9528,-0.9544,-0.9549,-0.9567,-0.9557,-0.9562,-0.9577,-0.9582,-0.9602,-0.958,-0.9601,-0.9602,-0.9596,-0.9641,-0.9646,-0.9679,-0.9627,-0.9628,-0.9629,0,-0.9452,-0.9467,-0.9502,-0.9516,-0.9523,-0.954,-0.9557,-0.9572,-0.9585,-0.9587,-0.9599,-0.9597,-0.9619,-0.9604,-0.9633,-0.9618,-0.9627,-0.9631,-0.9633,-0.9633,-0.9616,-0.9641,-0.9689,-0.9694,-0.9636,-0.9636,-0.9635,0,-0.9477,-0.9507,-0.9532,-0.9539,-0.9556,-0.9567,-0.9575,-0.9587,-0.9598,-0.9613,-0.9619,-0.9637,-0.9645,-0.9659,-0.9661,-0.965,-0.9691,-0.9676,-0.9693,-0.9693,-0.97,-0.9699,-0.9749,-0.9708,-0.9708,-0.9708,-0.9708,0,-0.9514,-0.9536,-0.9543,-0.9558,-0.9583,-0.9585,-0.9609,-0.9616,-0.9627,-0.9643,-0.9641,-0.9656,-0.966,-0.9676,-0.9678,-0.9702,-0.9706,-0.9708,-0.9708,-0.9708,-0.9707,-0.9712,-0.971,-0.971,-0.9709,-0.9709,-0.9709,0,-0.9546,-0.9552,-0.9578,-0.9593,-0.9597,-0.9614,-0.9626,-0.964,-0.9645,-0.9666,-0.9671,-0.9679,-0.9698,-0.9703,-0.9725,-0.9727,-0.9754,-0.9753,-0.975,-0.9749,-0.9765,-0.9763,-0.9819,-0.9826,-0.9782,-0.9782,-0.9783,0,-0.9568,-0.9585,-0.9601,-0.9612,-0.962,-0.9638,-0.9649,-0.9653,-0.9664,-0.9681,-0.9694,-0.9712,-0.9727,-0.9758,-0.9765,-0.9782,-0.978,-0.9799,-0.9783,-0.9782,-0.9779,-0.9778,-0.9779,-0.9801,-0.9802,-0.9802,-0.9802,0,-0.9607,-0.9609,-0.9626,-0.9644,-0.9657,-0.9671,-0.9684,-0.9694,-0.9699,-0.9713,-0.9732,-0.9744,-0.9767,-0.9785,-0.9803,-0.981,-0.9807,-0.9808,-0.9812,-0.9811,-0.9808,-0.9809,-0.9757,-0.9806,-0.9805,-0.9805,-0.9805,-0.9805,-0.9634,-0.9649,-0.9662,-0.9681,-0.9691,-0.9704,-0.9719,-0.9726,-0.9743,-0.9762,-0.9763,-0.9784,-0.9798,-0.9821,-0.983,-0.9846,-0.984,-0.9847,-0.9849,-0.985,-0.9851,-0.9807,-0.9849,-0.9849,-0.9849,-0.9849,-0.9849,0,-0.9672,-0.9681,-0.9698,-0.9717,-0.9732,-0.9729,-0.9744,-0.9756,-0.9774,-0.9787,-0.9802,-0.9825,-0.9843,-0.9853,-0.9871,-0.9882,-0.9881,-0.9886,-0.9885,-0.9886,-0.9855,-0.9849,-0.9887,-0.9887,-0.9887,-0.9887,-0.9887,-0.9887,-0.9693,-0.9718,-0.9722,-0.9752,-0.976,-0.9781,-0.979,-0.9802,-0.9812,-0.9837,-0.9853,-0.9859,-0.9871,-0.989,-0.9906,-0.9909,-0.9915,-0.9921,-0.9922,-0.9893,-0.9889,-0.9885,-0.9879,-0.9922,-0.9923,-0.9952,-0.9952,-0.9952]},{"header":{"parameterUnit":"m.s-1","parameterCategory":1,"la1":30.2991,"la2":30.254,"lo1":-89.0895,"lo2":-89.0444,"dy":0.0017,"dx":0.0017,"nx":28,"ny":28,"refTime":"2024-02-12T03:00:00:Z","depth":0,"parameterNumber":3,"parameterNumberName":"V-component_of_WINDS"},"data":[0,0,0,0,0,0,0,0,0,0,0,0,0,0,0,0,0,0,0,0,0,0,0,0,0,0,0,0,0,0,0,0,0,0,0,0,0,0,0,0,0,0,0,0,0,0,0,0,0,0,0,0,0,0,0,0,0,0,3.3533,3.3534,0,3.3596,3.3596,3.3597,3.3576,3.3574,3.3573,3.3572,3.3635,3.3638,3.3641,0,0,0,0,0,0,0,0,0,0,0,0,0,3.3396,3.3399,3.3533,3.3534,3.3535,3.3595,3.3596,3.3597,3.3576,3.3574,3.3573,3.3571,3.3634,3.3638,3.3641,0,0,0,0,0,0,0,0,0,0,0,0,0,3.3457,3.34,3.3533,3.3532,3.3532,3.3595,3.3596,3.3597,3.3576,3.3574,3.3572,3.357,3.3633,3.3637,3.3642,3.371,0,0,3.3655,3.3657,0,0,0,0,0,0,0,0,3.3453,3.3462,3.3531,3.3532,3.3533,3.3576,3.3571,3.3635,3.3577,3.356,3.3572,3.3569,3.3617,3.3623,3.3639,3.3713,3.3716,3.3656,3.3658,3.366,3.3662,0,0,0,0,0,0,0,3.3449,3.3459,3.3558,3.3532,3.3533,3.3528,3.3534,3.3583,3.3599,3.3561,3.356,3.3567,3.3617,3.3635,3.364,3.3717,3.3656,3.366,3.3662,3.3664,3.385,3.3853,0,0,0,0,0,0,3.3445,3.3456,3.3556,3.356,3.3487,3.3532,3.3539,3.3564,3.3598,3.3602,3.3569,3.3566,3.3628,3.3635,3.3642,3.3726,3.366,3.3664,3.3667,3.3848,3.3851,3.3853,0,0,0,0,0,0,3.3442,3.3454,3.3553,3.3507,3.352,3.3537,3.3565,3.3566,3.3584,3.3604,3.3607,3.3584,3.3627,3.3636,3.3694,3.3728,3.3666,3.367,3.3845,3.3849,3.3852,3.3892,0,0,0,0,0,0,3.3438,3.3453,3.3479,3.3508,3.3522,3.3604,3.3567,3.3569,3.3592,3.3588,3.3619,3.3623,3.3626,3.3687,3.3698,3.3733,3.3674,3.3842,3.3847,3.3851,3.3888,3.3897,3.3904,0,0,0,0,0,3.3433,3.3488,3.3481,3.3493,3.3556,3.3606,3.3614,3.3617,3.3594,3.3621,3.3634,3.3622,3.3721,3.3693,3.3705,3.3742,3.384,3.3846,3.3851,3.3884,3.3895,3.3904,0,0,0,0,0,0,3.3463,3.3492,3.3484,3.355,3.3576,3.3602,3.3636,3.3628,3.3661,3.3656,3.3658,3.3665,3.3725,3.3738,3.3706,3.381,3.3778,3.3785,3.3799,3.3809,3.3817,3.3814,3.3678,0,0,0,0,0,3.3477,3.3515,3.3538,3.3594,3.3607,3.362,3.3642,3.3641,3.3668,3.3679,3.3696,3.3723,3.376,3.3785,3.382,3.3889,3.3896,3.392,3.3928,3.3934,3.3942,3.398,3.3991,3.387,3.387,3.387,0,0,3.3506,3.3527,3.3551,3.3601,3.3621,3.3661,3.3629,3.3673,3.3703,3.3686,3.3742,3.3755,3.3785,3.3848,3.3877,3.3862,3.3976,3.3941,3.3946,3.395,3.3987,3.3998,3.4008,3.3874,3.3873,3.3873,0,0,3.3582,3.36,3.365,3.367,3.3701,3.3708,3.372,3.3748,3.3757,3.3812,3.3801,3.3836,3.39,3.3922,3.3941,3.4024,3.4014,3.4035,3.4078,3.4115,3.4125,3.4133,3.4164,3.4175,3.4042,3.4042,3.4042,0,3.3615,3.3675,3.3676,3.3721,3.3743,3.3729,3.3779,3.3799,3.384,3.3855,3.3837,3.3918,3.3936,3.4005,3.4026,3.4041,3.4055,3.4033,3.4123,3.4132,3.414,3.417,3.4181,3.4045,3.4044,3.4044,3.4044,0,3.3715,3.3757,3.3793,3.3833,3.3859,3.3906,3.3914,3.394,3.3937,3.3947,3.4004,3.4026,3.4066,3.4081,3.4079,3.415,3.414,3.4122,3.4091,3.4154,3.4182,3.4193,3.4048,3.4047,3.4047,3.4046,0,0,3.3813,3.3852,3.3865,3.3884,3.3916,3.3949,3.3995,3.4034,3.4057,3.4085,3.4125,3.4179,3.4163,3.4185,3.4184,3.4217,3.4283,3.4195,3.4196,3.4212,3.4364,3.4379,3.4392,3.4275,3.4277,3.4279,3.4362,0,3.3893,3.3975,3.3976,3.4052,3.4091,3.4077,3.4118,3.4142,3.4152,3.4186,3.4196,3.4236,3.421,3.4224,3.4255,3.4268,3.4313,3.4261,3.4313,3.4315,3.4309,3.4407,3.4422,3.4501,3.4373,3.4375,3.4376,0,3.3997,3.4029,3.4108,3.4135,3.4152,3.4188,3.4225,3.4257,3.4284,3.4289,3.4313,3.4308,3.4355,3.432,3.4386,3.435,3.4371,3.438,3.4383,3.439,3.4351,3.4418,3.4525,3.4538,3.4393,3.4392,3.4391,0,3.4063,3.4125,3.4181,3.4197,3.4229,3.4255,3.427,3.4294,3.4318,3.4349,3.4365,3.4401,3.4421,3.4449,3.4453,3.4427,3.452,3.4485,3.4526,3.4526,3.4549,3.4548,3.4663,3.4558,3.4558,3.4557,3.4557,0,3.4153,3.4203,3.4211,3.4246,3.4301,3.4302,3.4356,3.4369,3.4391,3.4428,3.4417,3.4452,3.4454,3.449,3.4493,3.4548,3.4557,3.4562,3.4563,3.4565,3.4565,3.458,3.4576,3.4561,3.456,3.4559,3.4559,0,3.4238,3.4245,3.4305,3.4331,3.4338,3.4378,3.4399,3.4433,3.444,3.4487,3.4498,3.4511,3.4552,3.4559,3.4607,3.4609,3.4676,3.4669,3.4667,3.4667,3.4709,3.4706,3.484,3.4859,3.4739,3.4741,3.4742,0,3.4296,3.4334,3.4363,3.4387,3.4403,3.4442,3.4466,3.4467,3.4493,3.4526,3.4555,3.4595,3.4628,3.4695,3.4708,3.4745,3.4742,3.4786,3.4747,3.4748,3.4745,3.4744,3.4748,3.4795,3.4796,3.4797,3.4798,0,3.44,3.4401,3.4436,3.4473,3.4502,3.4531,3.4558,3.4578,3.4582,3.4611,3.4654,3.4679,3.4729,3.4769,3.4806,3.482,3.4811,3.4809,3.4821,3.4825,3.4823,3.4827,3.469,3.4807,3.4806,3.4805,3.4805,3.4805,3.4474,3.4508,3.4534,3.4574,3.4594,3.4619,3.4652,3.4664,3.4699,3.474,3.4738,3.4785,3.481,3.4859,3.4876,3.4912,3.4898,3.4915,3.492,3.4924,3.493,3.4815,3.4919,3.4918,3.4918,3.4918,3.4918,0,3.458,3.4595,3.4631,3.467,3.4701,3.4687,3.4717,3.4744,3.4785,3.481,3.4842,3.4891,3.493,3.4946,3.4984,3.5011,3.5007,3.5021,3.502,3.5024,3.4939,3.4926,3.5023,3.5023,3.5023,3.5023,3.5023,3.5023,3.4638,3.4695,3.4699,3.4766,3.4781,3.4827,3.4845,3.4868,3.4888,3.4943,3.4976,3.4986,3.5007,3.5047,3.5082,3.5085,3.5101,3.5118,3.5119,3.504,3.503,3.502,3.5008,3.512,3.512,3.5201,3.5202,3.5203]}]]